Gage, OK

3:29 AM CST on November 18, 2017 (GMT -0600)
Gage

Weather History for KGAG - April, 2013

Change the Weather History Date:

Sunday, April 28, 2013

  Actual Average Record
Temperature  
Mean Temperature 68 °F -  
Max Temperature 88 °F 72 °F 90 °F (1951)
Min Temperature 48 °F 45 °F 29 °F (1965)
Cooling Degree Days 3    
Growing Degree Days 18 (Base 50)    
Moisture  
Dew Point 42 °F    
Average Humidity 49    
Maximum Humidity 89    
Minimum Humidity 11    
Precipitation  
Precipitation 0.00 in - - ()
Sea Level Pressure  
Sea Level Pressure 29.84 in    
Wind  
Wind Speed 9 mph (SSW)    
Max Wind Speed 21 mph    
Max Gust Speed 26 mph    
Visibility 10 miles    
Events      
Averages and records for this station are not official NWS values.
T = Trace of Precipitation, MM = Missing Value Source: NWS Daily Summary

Daily Weather History Graph

Daily Weather History Graph

Search for Another Location

Airport or City:

Trip Planner

Search our weather history database for the weather conditions in past years. The results will help you decide how hot, cold, wet, or windy it might be!

Date:

Astronomy

Apr. 28, 2013 Rise Set
Actual Time 6:49 AM CDT 8:24 PM CDT
Civil Twilight 6:21 AM CDT 8:52 PM CDT
Nautical Twilight 5:48 AM CDT 9:25 PM CDT
Astronomical Twilight 5:14 AM CDT 9:59 PM CDT
Moon 11:53 PM CDT (4/28) 9:10 AM CDT (4/28)
Length of Visible Light 14h 30m
Length of Day
13h 35m
Waning Gibbous, 88% of the Moon is Illuminated
Apr 28
Waning Gibbous
May 2
Last Quarter
May 9
New
May 17
First Quarter
May 24
Full

Hourly Weather History & Observations

Time (CDT) Temp. Dew Point Humidity Pressure Visibility Wind Dir Wind Speed Gust Speed Precip Events Conditions
12:53 AM 55.0 °F 48.9 °F 80% 29.95 in 10.0 mi South 3.5 mph - N/A   Clear
1:53 AM 55.0 °F 50.0 °F 83% 29.94 in 10.0 mi SSW 10.4 mph - N/A   Clear
2:53 AM 53.1 °F 48.0 °F 83% 29.93 in 10.0 mi SW 5.8 mph - N/A   Clear
3:53 AM 50.0 °F 46.9 °F 89% 29.92 in 10.0 mi SW 6.9 mph - N/A   Clear
4:53 AM 50.0 °F 46.0 °F 86% 29.93 in 10.0 mi SSW 8.1 mph - N/A   Clear
5:53 AM 48.9 °F 45.0 °F 86% 29.94 in 10.0 mi SSW 4.6 mph - N/A   Clear
6:53 AM 48.0 °F 45.0 °F 89% 29.94 in 10.0 mi SW 4.6 mph - N/A   Clear
7:53 AM 53.6 °F 48.2 °F 82% 29.98 in 10.0 mi South 10.4 mph - N/A   Clear
8:53 AM 59.0 °F 48.0 °F 67% 29.95 in 10.0 mi South 12.7 mph - N/A   Clear
9:53 AM 64.9 °F 46.9 °F 52% 29.92 in 10.0 mi SSW 19.6 mph 26.5 mph N/A   Clear
10:53 AM 70.0 °F 45.0 °F 41% 29.90 in 10.0 mi SW 20.7 mph - N/A   Clear
11:53 AM 77.0 °F 45.0 °F 32% 29.87 in 10.0 mi SSW 17.3 mph 23.0 mph N/A   Clear
12:53 PM 82.0 °F 41.0 °F 23% 29.83 in 10.0 mi WSW 15.0 mph - N/A   Clear
1:53 PM 84.9 °F 35.1 °F 17% 29.81 in 10.0 mi West 10.4 mph 17.3 mph N/A   Clear
2:53 PM 86.0 °F 28.0 °F 12% 29.79 in 10.0 mi South 9.2 mph - N/A   Clear
3:53 PM 88.0 °F 26.1 °F 11% 29.76 in 10.0 mi South 8.1 mph - N/A   Clear
4:53 PM 88.0 °F 30.9 °F 13% 29.74 in 10.0 mi Variable 6.9 mph - N/A   Clear
5:53 PM 87.1 °F 27.0 °F 11% 29.73 in 10.0 mi Calm Calm - N/A   Clear
6:53 PM 86.0 °F 33.1 °F 15% 29.72 in 10.0 mi ESE 4.6 mph - N/A   Clear
7:53 PM 78.1 °F 46.0 °F 32% 29.73 in 10.0 mi SE 12.7 mph - N/A   Clear
8:53 PM 72.0 °F 46.9 °F 41% 29.74 in 10.0 mi SE 13.8 mph - N/A   Clear
9:53 PM 70.0 °F 46.0 °F 42% 29.75 in 10.0 mi SSE 16.1 mph - N/A   Clear
10:53 PM 69.1 °F 46.9 °F 45% 29.75 in 10.0 mi SSE 20.7 mph - N/A   Clear
11:53 PM 66.9 °F 50.0 °F 54% 29.74 in 10.0 mi SSE 20.7 mph - N/A   Clear